Regional Weather Roundup
Issued by NWS

Home | Current Version | Previous Version | Graphics & Text | Print | Product List | Glossary On
Versions: 1 2 3 4 5 6 7 8 9 10 11 12 13 14 15 16 17 18 19 20 21 22 23 24 25 26 27 28 29 30 31 32 33 34 35 36 37 38 39 40 41 42 43 44 45 46 47 48 49 50
465
ASUS43 KDMX 120706
RWRIA

WEATHER ROUNDUP FOR IOWA
NATIONAL WEATHER SERVICE DES MOINES IA
100 AM CST TUE DEC 12 2017

NOTE: "FAIR" INDICATES FEW OR NO CLOUDS BELOW 12,000 FEET WITH NO
SIGNIFICANT WEATHER AND/OR OBSTRUCTIONS TO VISIBILITY.

* - THESE STATIONS ARE NOT NWS STATIONS...THUS NOT UNDER NWS
QUALITY CONTROL.  THEY ALSO DO NOT REPORT WEATHER SUCH
AS PRECIPITATION OR FOG.

IAZ001>003-012>014-020>022-031>034-043>046-120800-
   NORTHWEST IOWA

CITY           SKY/WX    TMP DP  RH WIND       PRES   REMARKS
CARROLL *      CLEAR     16  10  79 NW13      30.29S WCI   2
CHEROKEE *     CLEAR     16  12  84 NW8       30.32S WCI   5
DENISON *      CLEAR     18  12  79 VRB3      30.33S
LE MARS *      CLEAR     18  14  86 N6        30.34F WCI   9
ORANGE CITY *  CLEAR     18  16  93 N8        30.31F WCI   7
SHELDON *      CLEAR     14  12  92 NW10      30.30S WCI   1
SIOUX CITY     CLEAR     16  13  88 NW6       30.36F WCI   7
SPENCER        CLEAR     15  10  80 NW15      30.30S WCI   0
STORM LAKE *   CLEAR     14   9  79 N15       30.28F WCI  -1
$$

IAZ055>058-069>071-079>083-090>094-120800-
   SOUTHWEST IOWA

CITY           SKY/WX    TMP DP  RH WIND       PRES   REMARKS
ATLANTIC *     CLEAR     19  12  73 N15       30.30F WCI   5
AUDUBON *      CLEAR     18  12  79 NW13      30.29S WCI   4
CLARINDA *     CLEAR     23  18  80 N15G22    30.33R WCI  10
COUNCIL BLFS * CLEAR     23  18  80 NW14      30.32S WCI  11
CRESTON *      CLEAR     19  12  73 N14G24    30.28R WCI   6
HARLAN  *      CLEAR     19  12  73 N10G16    30.34F WCI   8
LAMONI         PTCLDY    22  14  71 N17G23    30.24R WCI   8
RED OAK *      CLEAR     23  14  68 N13       30.33R WCI  11
SHENANDOAH *   CLEAR     25  19  80 N7        30.34R WCI  17
$$

IAZ047>049-059>061-072>074-084-120800-
   CENTRAL IOWA

CITY           SKY/WX    TMP DP  RH WIND       PRES   REMARKS
AMES           CLEAR     18  13  80 NW20      30.26R WCI   2
ANKENY *       PTCLDY    19  14  79 NW14G21   30.28R WCI   6
BOONE *        CLEAR     18  12  79 NW14      30.25R WCI   4
CHARITON *     CLOUDY    21  16  79 N13G22    30.23R WCI   9
DES MOINES     PTCLDY    20  13  74 NW14      30.26R WCI   7
GRINNELL*      PTCLDY    22  17  78 NW18      30.20R WCI   8
KNOXVILLE *    MOCLDY    21  14  73 NW20G25   30.21S WCI   6
MARSHALLTOWN   CLEAR     19  15  84 NW12      30.21R WCI   7
NEWTON *       PTCLDY    21  16  79 NW16G23   30.22R WCI   7
PELLA *        CLEAR     23  16  74 NW17      30.23R WCI   9
PERRY *          N/A     18  11  77 NW13      30.28F WCI   4
$$

IAZ004>006-015-016-023>025-035-036-120800-
   NORTH CENTRAL IOWA

CITY           SKY/WX    TMP DP  RH WIND       PRES   REMARKS
ALGONA *       CLEAR     14  10  85 NW15G22   30.25S WCI  -1
CLARION *      CLEAR     14  12  92 NW15      30.25R WCI  -1
ESTHERVILLE    CLEAR     13   7  77 NW17      30.27S WCI  -4
FORT DODGE *   CLEAR     14   9  80 NW8       30.27S WCI   3
MASON CITY     CLEAR     14  10  84 NW17      30.23R WCI  -3
FOREST CITY *    N/A     16  12  86 NW16G24   30.23S WCI   0
WEBSTER CITY * CLEAR     16   9  73 NW20      30.23F WCI  -1
IOWA FALLS *     N/A     18  14  85 NW17      30.23R WCI   3
$$

IAZ007>011-017>019-026>030-037>042-050>054-066-120800-
   NORTHEAST IOWA

CITY           SKY/WX    TMP DP  RH WIND       PRES   REMARKS
CEDAR RAPIDS   CLEAR     23  15  71 NW13        N/A  WCI  11
CHARLES CITY * PTCLDY    19  16  86 NW13      30.18S WCI   7
CLINTON *      MOCLDY    24  17  74 N21G29    30.08R WCI   9
DECORAH *      CLEAR     18  10  73 NW16G25   30.12S WCI   3
DUBUQUE        CLEAR     20  12  71 NW14      30.08R WCI   7
MONTICELLO *   CLEAR     23  12  63 NW18G25   30.12R WCI   9
OELWEIN *      CLEAR     19  16  86 NW16G23   30.15S WCI   5
WATERLOO       PTCLDY    19  11  70 NW15      30.19R WCI   5
$$

IAZ064-065-067-068-078-120800-
   EAST CENTRAL IOWA

CITY           SKY/WX    TMP DP  RH WIND       PRES   REMARKS
DAVENPORT      PTCLDY    25  17  72 NW17      30.11R WCI  12
IOWA CITY      CLEAR     28  15  58 NW18G26   30.16R WCI  15
MT. PLEASANT * CLEAR     27  17  65 NW18G31   30.15R WCI  13
MUSCATINE *    PTCLDY    27  18  69 NW15G26   30.15R WCI  15
QUAD CITIES    MOCLDY    29  17  61 NW20G26   30.08R WCI  16
$$

IAZ062-063-075>077-085>089-095>099-120800-
   SOUTHEAST IOWA

CITY           SKY/WX    TMP DP  RH WIND       PRES   REMARKS
BURLINGTON     PTCLDY    28  18  66 NW16G30   30.11R WCI  16
FAIRFIELD *    CLOUDY    28  18  64 NW22G30   30.15R WCI  15
FORT MADISON * CLEAR     28  19  69 NW23G32   30.13R WCI  14
KEOKUK *       CLOUDY    32  21  64 NW15G23   30.12R WCI  22
OSKALOOSA *      N/A     24  17  75 NW20      30.20R WCI   9
OTTUMWA        MOCLDY    26  16  65 NW22G28   30.19R WCI  12
WASHINGTON *   CLEAR     25  18  74 NW16G24   30.17R WCI  12
$$

ABBREVIATIONS USED IN REMARKS
   TC - TEMPERATURES IN CELSIUS
  WCI - WIND CHILL INDEX
   HX - HEAT INDEX
  VSB - VISIBILITY
$$





USA.gov is the U.S. government's official web portal to all federal, state and local government web resources and services.